Duncan, OK

12:09 PM CST on November 22, 2019 (GMT -0600)
Halliburton

Weather History for KDUC - September, 2019

Change the Weather History Date:

Monday, September 30, 2019

  Actual Average (WUND) Record (WUND)
Temperature  
Mean Temperature 80 °F -  
Max Temperature 88 °F - - (-1)
Min Temperature 72 °F - - (-1)
Cooling Degree Days 15    
Growing Degree Days 30 (Base 50)    
Moisture  
Dew Point 71 °F    
Average Humidity 73    
Maximum Humidity 91    
Minimum Humidity 56    
Precipitation  
Precipitation 0.00 in - - ()
Sea Level Pressure  
Sea Level Pressure 29.99 in    
Wind  
Wind Speed 14 mph (SSE)    
Max Wind Speed 23 mph    
Max Gust Speed 28 mph    
Visibility 10 miles    
Events      
Averages and records for this station are not official NWS values.
T = Trace of Precipitation, MM = Missing Value Source: NWS Daily Summary

Daily Weather History Graph

Daily Weather History Graph

Search for Another Location

Airport or City:

Astronomy

Sep. 30, 2019 Rise Set
Actual Time 7:25 AM CDT 7:17 PM CDT
Civil Twilight 7:00 AM CDT 7:42 PM CDT
Nautical Twilight 6:31 AM CDT 8:11 PM CDT
Astronomical Twilight 6:01 AM CDT 8:41 PM CDT
Moon 9:27 AM CDT (9/30) 8:59 PM CDT (9/30)
Length of Visible Light 12h 42m
Length of Day
11h 52m
Waxing Crescent, 6% of the Moon is Illuminated
Sep 30
Waxing Crescent
Oct 5
First Quarter
Oct 13
Full
Oct 21
Last Quarter
Oct 27
New

Hourly Weather History & Observations

Time (CDT) Temp. Heat Index Dew Point Humidity Pressure Visibility Wind Dir Wind Speed Gust Speed Precip Events Conditions
12:15 AM 78.6 °F - 66.9 °F 67% 29.99 in 10.0 mi SE 12.7 mph - N/A   Clear
12:35 AM 77.4 °F - 66.7 °F 70% 29.99 in 10.0 mi SE 12.7 mph - N/A   Clear
12:55 AM 77.4 °F - 66.6 °F 69% 30.00 in 10.0 mi SE 13.8 mph - N/A   Clear
1:15 AM 77.4 °F - 66.4 °F 69% 30.00 in 10.0 mi SSE 12.7 mph 18.4 mph N/A   Clear
1:35 AM 77.2 °F - 66.6 °F 70% 30.00 in 10.0 mi SSE 13.8 mph - N/A   Clear
2:15 AM 76.6 °F - 67.1 °F 72% 30.00 in 10.0 mi SSE 15.0 mph 19.6 mph N/A   Clear
2:35 AM 76.3 °F - 67.3 °F 74% 30.00 in 10.0 mi SSE 12.7 mph - N/A   Clear
2:55 AM 75.9 °F - 67.3 °F 74% 30.01 in 10.0 mi SSE 12.7 mph - N/A   Clear
3:15 AM 75.7 °F - 67.5 °F 75% 30.00 in 10.0 mi SSE 13.8 mph - N/A   Scattered Clouds
3:35 AM 75.7 °F - 67.6 °F 76% 30.00 in 10.0 mi SSE 12.7 mph - N/A   Scattered Clouds
3:55 AM 75.6 °F - 67.6 °F 76% 29.99 in 10.0 mi SSE 13.8 mph - N/A   Clear
4:15 AM 75.2 °F - 68.0 °F 78% 30.00 in 10.0 mi SSE 15.0 mph - N/A   Clear
4:55 AM 74.8 °F - 68.2 °F 80% 29.99 in 10.0 mi South 11.5 mph - N/A   Clear
5:15 AM 74.1 °F - 68.4 °F 82% 30.00 in 10.0 mi South 12.7 mph - N/A   Clear
5:35 AM 73.9 °F - 68.5 °F 83% 29.99 in 10.0 mi South 11.5 mph - N/A   Clear
5:55 AM 73.2 °F - 68.7 °F 86% 30.00 in 10.0 mi South 10.4 mph - N/A   Clear
6:15 AM 72.9 °F - 68.9 °F 87% 30.00 in 10.0 mi SSE 11.5 mph - N/A   Clear
6:35 AM 73.2 °F - 69.1 °F 87% 30.00 in 10.0 mi SSE 11.5 mph - N/A   Clear
6:55 AM 73.0 °F - 69.4 °F 88% 30.00 in 10.0 mi South 12.7 mph - N/A   Clear
7:15 AM 72.7 °F - 69.4 °F 90% 29.99 in 10.0 mi SSE 13.8 mph - N/A   Clear
7:35 AM 72.3 °F - 69.4 °F 91% 30.00 in 10.0 mi South 11.5 mph - N/A   Clear
7:55 AM 72.3 °F - 69.6 °F 91% 30.02 in 10.0 mi South 10.4 mph - N/A   Clear
8:15 AM 73.2 °F - 70.2 °F 90% 30.01 in 10.0 mi South 12.7 mph - N/A   Clear
8:35 AM 74.3 °F - 70.3 °F 87% 30.02 in 10.0 mi South 12.7 mph - N/A   Clear
8:55 AM 75.4 °F - 70.7 °F 85% 30.03 in 10.0 mi South 13.8 mph 18.4 mph N/A   Clear
9:15 AM 77.0 °F - 71.2 °F 82% 30.03 in 10.0 mi South 15.0 mph - N/A   Clear
9:35 AM 79.0 °F - 71.2 °F 77% 30.03 in 10.0 mi South 12.7 mph - N/A   Clear
9:55 AM 80.1 °F 83.6 °F 71.2 °F 74% 30.04 in 10.0 mi South 15.0 mph - N/A   Scattered Clouds
10:15 AM 80.8 °F 84.6 °F 70.9 °F 72% 30.04 in 10.0 mi SSW 18.4 mph - N/A   Scattered Clouds
10:35 AM 81.7 °F 85.8 °F 70.9 °F 70% 30.04 in 10.0 mi South 23.0 mph - N/A   Mostly Cloudy
10:55 AM 82.6 °F 87.1 °F 71.1 °F 68% 30.04 in 10.0 mi SSW 16.1 mph - N/A   Mostly Cloudy
11:15 AM 82.9 °F 87.2 °F 70.7 °F 66% 30.04 in 10.0 mi South 17.3 mph 25.3 mph N/A   Scattered Clouds
11:35 AM 84.4 °F 89.4 °F 71.1 °F 64% 30.04 in 10.0 mi South 17.3 mph - N/A   Mostly Cloudy
11:55 AM 84.6 °F 88.5 °F 69.4 °F 60% 30.03 in 10.0 mi SSW 17.3 mph 23.0 mph N/A   Scattered Clouds
12:15 PM 85.6 °F 90.1 °F 69.6 °F 59% 30.03 in 10.0 mi South 17.3 mph 26.5 mph N/A   Scattered Clouds
12:35 PM 85.3 °F 89.8 °F 70.2 °F 60% 30.03 in 10.0 mi SSW 18.4 mph 21.9 mph N/A   Mostly Cloudy
12:55 PM 85.8 °F 90.8 °F 70.5 °F 60% 30.03 in 10.0 mi South 19.6 mph 26.5 mph N/A   Overcast
1:15 PM 86.0 °F 91.1 °F 70.7 °F 60% 30.02 in 10.0 mi South 18.4 mph 24.2 mph N/A   Overcast
1:35 PM 87.3 °F 93.2 °F 71.4 °F 59% 30.01 in 10.0 mi South 20.7 mph 25.3 mph N/A   Mostly Cloudy
1:55 PM 87.1 °F 92.0 °F 70.3 °F 57% 30.00 in 10.0 mi South 17.3 mph 27.6 mph N/A   Overcast
2:15 PM 88.2 °F 93.7 °F 70.7 °F 56% 30.00 in 10.0 mi South 19.6 mph 26.5 mph N/A   Mostly Cloudy
2:35 PM 87.4 °F 93.1 °F 71.1 °F 58% 29.99 in 10.0 mi South 20.7 mph - N/A   Overcast
2:55 PM 86.4 °F 91.8 °F 70.9 °F 60% 29.99 in 10.0 mi South 16.1 mph - N/A   Overcast
3:15 PM 86.7 °F 92.9 °F 71.6 °F 61% 29.99 in 10.0 mi South 16.1 mph - N/A   Overcast
3:35 PM 86.5 °F 92.9 °F 72.0 °F 62% 29.98 in 10.0 mi South 16.1 mph - N/A   Overcast
3:55 PM 86.5 °F 92.5 °F 71.6 °F 61% 29.97 in 10.0 mi South 16.1 mph - N/A   Overcast
4:15 PM 86.7 °F 92.9 °F 72.0 °F 61% 29.97 in 10.0 mi SSE 17.3 mph - N/A   Overcast
4:35 PM 86.5 °F 92.9 °F 72.3 °F 62% 29.96 in 10.0 mi South 17.3 mph - N/A   Overcast
4:55 PM 86.2 °F 92.6 °F 72.3 °F 63% 29.96 in 10.0 mi SSE 11.5 mph - N/A   Overcast
5:15 PM 86.2 °F 92.6 °F 72.3 °F 63% 29.95 in 10.0 mi SSE 10.4 mph - N/A   Overcast
5:35 PM 86.7 °F 93.7 °F 72.7 °F 63% 29.95 in 10.0 mi SSE 12.7 mph - N/A   Overcast
5:55 PM 86.9 °F 94.1 °F 73.0 °F 63% 29.94 in 10.0 mi SSE 12.7 mph - N/A   Mostly Cloudy
6:15 PM 85.5 °F 92.2 °F 72.9 °F 66% 29.94 in 10.0 mi SE 11.5 mph - N/A   Mostly Cloudy
6:35 PM 84.9 °F 91.4 °F 72.7 °F 67% 29.94 in 10.0 mi SE 12.7 mph - N/A   Overcast
6:55 PM 84.4 °F 91.0 °F 73.0 °F 69% 29.93 in 10.0 mi SE 10.4 mph - N/A   Overcast
7:15 PM 83.7 °F 90.1 °F 73.2 °F 71% 29.94 in 10.0 mi ESE 10.4 mph - N/A   Overcast
7:35 PM 82.8 °F 88.7 °F 73.4 °F 73% 29.94 in 10.0 mi ESE 12.7 mph - N/A   Overcast
7:55 PM 82.0 °F 87.7 °F 73.2 °F 75% 29.94 in 10.0 mi ESE 9.2 mph - N/A   Mostly Cloudy
8:15 PM 81.1 °F 86.0 °F 73.0 °F 76% 29.94 in 10.0 mi ESE 9.2 mph - N/A   Scattered Clouds
8:35 PM 80.1 °F 84.2 °F 72.9 °F 79% 29.95 in 10.0 mi ESE 8.1 mph - N/A   Scattered Clouds
8:55 PM 79.7 °F - 73.0 °F 80% 29.95 in 10.0 mi ESE 10.4 mph - N/A   Clear
9:15 PM 79.2 °F - 73.0 °F 81% 29.95 in 10.0 mi ESE 10.4 mph - N/A   Clear
9:55 PM 79.2 °F - 72.9 °F 81% 29.95 in 10.0 mi ESE 11.5 mph - N/A   Clear
10:15 PM 79.2 °F - 72.7 °F 80% 29.96 in 10.0 mi SE 12.7 mph - N/A   Clear
10:35 PM 78.8 °F - 72.5 °F 81% 29.95 in 10.0 mi SE 15.0 mph - N/A   Clear
10:55 PM 78.6 °F - 72.3 °F 81% 29.96 in 10.0 mi SE 12.7 mph - N/A   Clear
11:15 PM 78.8 °F - 72.0 °F 79% 29.95 in 10.0 mi SE 13.8 mph - N/A   Clear
11:35 PM 78.4 °F - 71.6 °F 79% 29.95 in 10.0 mi SE 16.1 mph 19.6 mph N/A   Clear
11:55 PM 78.4 °F - 71.4 °F 79% 29.95 in 10.0 mi SE 13.8 mph - N/A   Clear